Location: Glen Waverley
(37.8830°S, 145.1670°E)
Time: 23:25:46
(UTC+10:00)

ISS - Visible Passes

Search period start: 20 July 2019 00:00
Search period end: 30 July 2019 00:00
Orbit: 409 x 418 km, 51.6° (Epoch: 20 July)

Date Brightness Start Highest point End Pass type
(mag) Time Alt. Az. Time Alt. Az. Time Alt. Az.
20 Jul -0.3 06:56:07 10° NNE 06:57:44 13° NE 06:59:22 10° E visible
22 Jul -2.0 06:52:22 10° NNW 06:55:30 37° NE 06:58:39 10° ESE visible
23 Jul -1.0 06:03:46 10° N 06:06:19 20° NE 06:08:52 10° E visible
24 Jul -0.5 05:16:15 10° NE 05:17:10 11° NE 05:18:06 10° ENE visible
24 Jul -3.8 06:50:04 10° WNW 06:53:24 69° SW 06:56:48 10° SE visible
25 Jul -3.3 06:01:35 16° NW 06:04:04 62° NE 06:07:26 10° ESE visible
26 Jul -1.9 05:15:17 30° ENE 05:15:17 30° ENE 05:17:51 10° ESE visible
26 Jul -2.6 06:48:32 10° W 06:51:30 28° SSW 06:54:29 10° SSE visible
27 Jul -3.4 06:01:33 41° WSW 06:02:01 45° SW 06:05:17 10° SE visible
28 Jul -1.5 05:14:39 22° SE 05:14:39 22° SE 05:16:00 10° SE visible
28 Jul -1.8 06:47:39 10° WSW 06:49:44 15° SSW 06:51:50 10° SSE visible
29 Jul -2.1 06:00:27 21° SSW 06:00:27 21° SSW 06:02:46 10° SSE visible
